Tracking 17155 objects as of 29-July-2015
HD Live streaming from Space Station

COSMOS 2251 DEB

Track COSMOS 2251 DEB now!
10-day predictions
COSMOS 2251 DEB is classified as:


NORAD ID: 34781
Int'l Code: 1993-036AAJ
Perigee: 559.5 km
Apogee: 621.0 km
Inclination: 74.0 °
Period: 96.3 minutes
Semi major axis: 6961 km
RCS: 0.0067 m2 (small)
Launch date: June 16, 1993
Source: Commonwealth of Independent States (former USSR) (CIS)

Note: This is SATELLITE DEBRIS
Your satellite tracking list
Your tracking list is empty





NASA's NSSDC Master Catalog

Two Line Element Set (TLE):
1 34781U 93036AAJ 15209.48920089  .00014741  00000-0  13310-2 0  9998
2 34781 074.0489 230.0815 0044211 304.4552 206.3243 14.94756530337389

Source of the keplerian elements: AFSPC

N2YO: 330